カタログに戻る

STARLINK-6288

運用中通信VLEO
NORAD 56398·PAYLOAD·🇺🇸 United States

打ち上げ May 4, 2023 から Cape Canaveral Space Force Station

Loading…

次のパス (今後24時間)

TLE

最新Source: CelesTrak SupGP

元期: Sep 14, 2026, 20:42 UTC

1 56398C 23061AA  26257.86298611  .00006321  00000+0  22897-3 0  2575
2 56398  43.0017 198.5616 0001515 262.0695 244.3719 15.27571003    18

AllMySatでSTARLINK-6288をリアルタイム追跡

Download on the App Store